Flight Track Log - Related Links

Times and Time Zones

All times are in EDT time to prevent confusion due to time zone crossing. See the FLG4208 flight status page for this flight to view local times or setup timezone preferences in your user account.

Time Position Orientation Groundspeed Altitude Reporting Facility
EDT Latitude Longitude Course Direction KTS MPH feet Rate Location/Type
Thu 12:02:00 PM 42.1787 -85.2968 107° East  Level FlightAware Approximate
Thu 12:02:02 PM 42.1650 -85.3575 100° East 268 308 6,600  Level Cleveland Center
Thu 12:03:00 PM 42.1588 -85.2114 107° East  Level FlightAware Approximate
Thu 12:03:02 PM 42.1450 -85.2383 103° East 297 342 9,600  Level Cleveland Center
Thu 12:04:00 PM 42.1389 -85.1262 107° East  Level FlightAware Approximate
Thu 12:04:02 PM 42.1231 -85.1050 102° East 313 360 11,000  Level Cleveland Center
Thu 12:05:00 PM 42.1189 -85.0409 108° East  Level FlightAware Approximate
Thu 12:05:02 PM 42.0992 -84.9689 103° East 346 398 11,000  Level Cleveland Center
Thu 12:06:00 PM 42.1040 -84.9776 108° East  Level FlightAware Approximate
Thu 12:06:02 PM 42.0769 -84.8414 103° East 356 410 12,000  Level Cleveland Center
Thu 12:07:00 PM 42.0814 -84.8820 108° East  Level FlightAware Approximate
Thu 12:07:02 PM 42.0456 -84.7275 110° East 356 410 12,000  Level Cleveland Center
Thu 12:08:02 PM 41.9947 -84.6347 126° Southeast 313 360 12,000  Level Cleveland Center
Thu 12:09:02 PM 41.9411 -84.5558 132° Southeast 313 360 12,000  Level Cleveland Center
Thu 12:10:02 PM 41.8767 -84.4933 144° Southeast 290 334 12,000  Level Cleveland Center
Thu 12:11:02 PM 41.8553 -84.3806 104° East 285 328 12,000  Level Cleveland Center
Thu 12:12:02 PM 41.8481 -84.2825 96° East 296 341 12,000  Level Cleveland Center
Thu 12:12:22 PM 41.8400 -84.2150 99° East 334 384 12,000  Level Cleveland Center
Thu 12:13:11 PM 41.8325 -84.1169 96° East 334 384 12,000  Level Cleveland Center
Thu 12:14:02 PM 41.8269 -84.0219 94° East 327 376 12,000  Level Cleveland Center
Thu 12:14:18 PM 41.8492 -83.9758 57° Northeast 363 418 12,000  Level Cleveland Center
Thu 12:15:02 PM 41.8886 -83.9164 48° Northeast 323 372 12,000  Level Cleveland Center
Thu 12:15:19 PM 41.9208 -83.8847 36° Northeast 362 417 12,000  Level Cleveland Center
Thu 12:16:02 PM 41.9619 -83.8253 47° Northeast 329 379 12,000  Level Cleveland Center
Thu 12:16:19 PM 41.9964 -83.7908 37° Northeast 364 419 12,000  Level Cleveland Center
Thu 12:17:02 PM 42.0375 -83.7342 46° Northeast 348 400 12,000 -408 Level Cleveland Center
Thu 12:18:02 PM 42.1111 -83.6397 44° Northeast 354 407 11,300 -759 Descending Cleveland Center
Thu 12:18:21 PM 42.1389 -83.6075 41° Northeast 353 406 11,000 -300 Descending Cleveland Center
Thu 12:19:02 PM 42.1758 -83.5561 46° Northeast 338 389 11,000  Level Cleveland Center
Thu 12:19:28 PM 42.2119 -83.5242 33° Northeast 284 327 11,000 -200 Level Cleveland Center
Thu 12:20:02 PM 42.2442 -83.4947 34° Northeast 305 351 10,800 -612 Descending Cleveland Center
Thu 12:20:17 PM 42.2694 -83.4817 21° North 298 343 10,500 -1,000 Descending Cleveland Center
Thu 12:21:02 PM 42.3203 -83.4419 30° Northeast 286 329 9,800 -984 Descending Cleveland Center
Thu 12:21:18 PM 42.3436 -83.4289 22° Northeast 285 328 9,500 -1,000 Descending Cleveland Center
Thu 12:22:02 PM 42.3925 -83.3919 29° Northeast 281 323 8,800 -971 Descending Cleveland Center
Thu 12:22:26 PM 42.4200 -83.3733 27° Northeast 280 322 8,400 -1,143 Descending Cleveland Center
Thu 12:23:26 PM 42.4861 -83.3200 31° Northeast 273 314 7,200 -1,512 Descending Cleveland Center
Thu 12:24:33 PM 42.4819 -83.2242 93° East 196 226 5,200 -1,433 Descending Cleveland Center
Thu 12:25:40 PM 42.4358 -83.2333 188° South 156 180 4,000 -590 Descending Cleveland Center
Thu 12:26:35 PM 42.3981 -83.2514 199° South 160 184 4,000  Level Cleveland Center

Login

Don't have an account? Register now (free) for customized features, flight alerts, and more!